Location: Mt. Chestnut Observatory
(40.9038°N, 79.9956°W)
Time: 19:40:53
(UTC-05:00)

Daily predictions for brighter satellites

Satellite Brightness Start Highest point End
(mag) Time Altitude Azimuth Time Altitude Azimuth Time Altitude Azimuth
CENTAUR R/B 3.2 18:11:09 10° NNW 18:19:01 73° NE 18:27:23 10° SE
NOSS 2-2 (E) 3.5 18:25:09 10° SSW 18:29:11 83° SE 18:33:51 10° NE
Cosmos 44 Rocket 3.2 18:26:42 10° NNW 18:31:27 64° NE 18:36:05 10° SE
SKYMED 2 3.6 18:27:22 10° NNE 18:31:45 88° ESE 18:36:05 10° SSW
Cosmos 1975 Rocket 3.0 18:27:27 10° N 18:31:46 64° E 18:36:02 10° SSE
SL-08 R/B 4.4 18:26:34 10° S 18:32:38 72° E 18:38:47 10° NNE
Cosmos 2322 Rocket 2.6 18:31:12 10° N 18:36:33 42° ENE 18:41:51 10° SE
Okean 1 4.4 18:33:44 10° NNE 18:37:08 25° ENE 18:40:31 10° SE
Cosmos 1340 4.3 18:37:57 10° NNE 18:40:15 15° ENE 18:42:31 10° ESE
Nadezhda 1 Rocket 3.9 18:38:25 10° N 18:44:29 64° E 18:50:29 10° SSE
Meteor 1-28 Rocket 3.3 18:41:02 10° N 18:44:51 81° WNW 18:48:39 10° SSW
Tiangong 2 1.1 18:45:34 10° WNW 18:48:37 63° N 18:50:56 16° E
NOSS 2-2 (D) 3.7 18:45:08 10° SW 18:49:09 73° NW 18:53:48 10° NNE
Cosmos 1818 4.3 18:44:30 10° S 18:49:16 32° ESE 18:54:04 10° NE
Cosmos 1346 Rocket 3.5 18:45:55 10° NNW 18:49:48 59° W 18:53:38 10° S
Meteor 1-25 Rocket 4.2 18:44:57 10° S 18:50:27 66° E 18:56:04 10° NNE
Cosmos 1536 Rocket 4.3 18:46:27 10° NNE 18:50:27 32° ENE 18:54:28 10° SE
Resurs 01 Rocket 2.4 18:48:53 10° SE 18:52:41 29° ENE 18:56:29 10° N
DNEPR-1 R/B 3.9 18:49:58 10° NNW 18:54:03 42° NE 18:58:05 10° SE
COSMOS 2428 4.4 18:52:44 10° NNE 18:55:25 13° NE 18:56:57 12° ENE
Helios 1B rocket 4.3 18:56:56 12° ESE 18:56:56 12° ESE 18:57:50 10° SE
Cosmos 44 2.9 18:55:53 10° NNW 19:00:21 75° ENE 19:04:39 10° SE
DELTA 2 R/B (1) 3.6 18:56:06 10° W 19:01:44 80° S 19:05:58 18° E
H-2A R/B 3.6 18:58:49 10° SE 19:01:56 26° ENE 19:05:05 10° NNE
FENGYUN 3A 3.8 18:57:37 10° SE 19:02:49 50° ENE 19:08:02 10° N
NOSS 2-2 (C) 4.4 19:02:28 10° SW 19:06:25 49° NW 19:10:58 10° NNE
deb Kosmos-1763 4.0 19:03:36 10° SSW 19:07:23 73° ESE 19:11:11 10° NNE
Cosmos 1812 2.8 19:07:28 10° N 19:11:21 79° W 19:15:11 10° S
Cosmos 676 Rocket 4.1 19:10:08 10° S 19:15:07 51° ESE 19:20:09 10° NNE
Cosmos 407 Rocket 3.4 19:10:16 10° SSW 19:15:28 76° ESE 19:20:46 10° NNE
Cosmos 1709 Rocket 4.0 19:11:00 10° S 19:17:08 62° E 19:23:14 10° NNE
Resurs 1-3 3.8 19:16:05 10° SE 19:20:17 47° ENE 19:24:30 10° N
Okean 2 Rocket 4.5 19:16:46 10° SSW 19:20:59 41° WNW 19:25:13 10° N
Cosmos 1300 Rocket 3.8 19:20:27 10° SSE 19:24:38 46° E 19:28:53 10° NNE
ATLAS 2A CENTAUR R/B 4.0 19:25:23 10° S 19:27:13 13° SSE 19:29:17 11° SE
FREGAT/IRIS 4.1 19:26:09 10° S 19:29:03 39° W 19:32:00 10° NNW
Cosmos 2360 Rocket 2.5 19:24:44 10° NNW 19:30:09 45° ENE 19:32:44 28° ESE
Cosmos 1602 3.6 19:30:07 10° S 19:33:54 61° E 19:37:46 10° NNE
Cosmos 2219 Rocket 4.0 19:30:59 10° NNE 19:33:20 14° NE 19:33:20 14° NE
SAR-Lupe-4 3.6 19:36:35 52° ENE 19:36:35 52° ENE 19:39:56 10° N
Cosmos 2151 Rocket 4.2 19:34:42 10° SSW 19:39:07 58° W 19:43:35 10° N
GEOS 3 Rocket 4.2 19:36:43 10° NNE 19:41:49 56° NW 19:46:58 10° SW
ALOS 2.6 19:37:24 10° S 19:42:01 66° WSW 19:46:41 10° NNW
SJ-6B 4.5 19:39:21 10° SSW 19:43:05 36° W 19:46:47 10° NNW
TSX-5 3.5 19:42:10 10° SSW 19:44:47 55° SSW 19:44:47 55° SSW
Cosmos 1140 Rocket 3.4 19:41:16 10° S 19:46:17 59° ESE 19:49:25 23° NNE
Cosmos 1833 4.1 19:40:53 10° SSW 19:46:34 71° ESE 19:51:45 12° NNE
Cosmos 1238 Rocket 3.4 19:44:45 10° N 19:46:37 32° N 19:46:37 32° N
Spot 1 3.8 19:49:08 64° E 19:49:23 66° ENE 19:53:27 10° N
Spot 2 Rocket 3.6 19:44:44 10° S 19:49:46 76° WSW 19:54:51 10° NNW
Cosmos 2333 Rocket 4.0 19:47:51 10° N 19:50:09 16° NNE 19:50:09 16° NNE
Okean 1 Rocket 2.9 19:47:02 10° S 19:51:28 70° E 19:55:57 10° NNE
Gbstr 26 Del rocket 4.5 19:49:09 10° SSW 19:50:41 20° S 19:50:41 20° S
Cosmos 1461 3.3 19:51:10 10° NW 19:55:07 57° WSW 19:56:31 36° S
Meteor 1-19 Rocket 4.1 19:51:04 10° N 19:56:45 89° E 20:02:29 10° S
SL-16 R/B 3.5 19:55:51 10° NW 20:01:06 40° WSW 20:06:21 10° S
Helios 1A 2.8 20:02:04 88° ENE 20:02:04 88° ENE 20:06:16 10° NNW
Okean 1-7 Rocket 3.9 19:58:13 10° N 20:01:50 52° NNE 20:01:50 52° NNE
Cosmos 614 Rocket 3.9 19:58:16 10° S 20:02:46 59° SE 20:02:46 59° SE
Cosmos 1633 3.5 19:59:44 10° SSW 20:03:18 48° W 20:06:54 10° N
Envisat 3.8 20:07:28 36° NNE 20:07:28 36° NNE 20:10:47 10° N
Cosmos 1954 Rocket 4.3 20:02:43 10° SSW 20:07:51 66° WNW 20:13:04 10° NNE
USA 229 DEB 4.3 20:03:22 10° NNW 20:09:58 39° NE 20:10:23 38° NE
USA 229 4.3 20:03:28 10° NNW 20:10:04 38° NE 20:10:27 38° NE
Cosmos 1340 4.3 20:12:37 10° NNW 20:16:04 33° W 20:18:12 19° SSW
Cosmos 2322 Rocket 4.2 20:15:43 10° NW 20:20:19 27° WSW 20:24:55 10° SSW
Tiangong 2 4.1 20:22:07 10° W 20:22:55 16° W 20:22:55 16° W
Meteor 1-23 Rocket 4.2 20:19:56 10° N 20:25:47 89° W 20:26:14 77° S
Resurs 01 Rocket 3.8 20:25:29 10° SSW 20:29:08 25° W 20:32:48 10° NW
Cosmos 2322 3.9 20:24:11 10° NNW 20:29:52 69° WSW 20:30:39 61° SSW
Helios 1B rocket 4.4 20:33:19 23° SW 20:33:19 23° SW 20:35:03 10° SW
Meteor 2-4 Rocket 4.2 20:33:23 10° NNW 20:38:51 55° W 20:40:14 43° SW
COSMOS 2428 3.3 20:34:58 10° NNW 20:39:00 47° N 20:39:00 47° N
Cosmos 2237 4.5 20:35:44 10° NNW 20:40:31 63° NW 20:40:31 63° NW
BREEZE-M DEB (TANK) 4.0 20:41:22 10° WNW 20:44:45 75° NW 20:44:45 75° NW
DELTA 2 R/B (1) 4.4 20:42:33 10° W 20:46:45 45° WSW 20:46:45 45° WSW
Cosmos 2237 Rocket 4.2 20:50:35 10° N 20:52:08 18° N 20:52:08 18° N
Cosmos 2360 Rocket 4.0 21:09:18 10° NW 21:13:51 25° WSW 21:14:34 25° WSW
Cosmos 2219 Rocket 4.1 21:13:11 10° NNW 21:15:05 22° NNW 21:15:05 22° NNW
Cosmos 2333 Rocket 4.4 21:30:42 10° NNW 21:32:10 19° NNW 21:32:10 19° NNW
